FENGYUN 1C DEB, 37593

Orbit data source: Space-Track

FENGYUN 1C DEB, 37593 is space debris in SSO originally from a launch on Mon, 10 May 1999 UTC launched from the Taiyaun Space Center, China (TSC). Fengyun 1C debris stems from the Chinese weather satellite Fengyun-1C, which was intentionally destroyed by a Chinese anti-satellite missile in 2007. This event dramatically increased the amount of space debris, with thousands of trackable fragments posing hazards to satellites and human spaceflight. The Fengyun 1C debris cloud has become a focal point in discussions about space sustainability and the need for international regulations to prevent the creation of new debris.

Loading next visibility...
Identifier
37593, 1999-025EKM
Orbit
SSO
Country
Flag of CNCN / PRC
Related business
Manufacturer
Unknown
Mission
Spacecraft
Bus & Motor
Unknown
Mass
Unknown
Launch date (UTC)
1999-05-10 (27 years ago)
Launch vehicle
Unknown
Launch site
Taiyaun Space Center, China (TSC)
Object type
Payload
Rocket body
Debris
Shape & HBR
Unknown shape, 0.1 m
Radar Cross Section
Medium (>0.1 m² and <1 m²)

Expand to show TLE details & history
Last TLE update: 3 weeks ago

TLE from 3 weeks ago
0 FENGYUN 1C DEB
1 37593U 99025EKM 26150.52084815  .00004293  00000-0  12692-2 0  9999
2 37593  99.0095  40.8046 0147339 341.6754 138.9750 14.37901213885454
Epoch: 2026-05-30T12:30Z
TLE epoch observation values (Epoch: 2026-05-30T12:30:01.280Z)
Latitude
57.23087°
Longitude
159.44682°
Altitude
855.086 km
Speed
7.389 km/s
True Right ascension
15h 39m 57s
True Declination
57° 04' 35"
Sunlit
Object was in daylight at epoch
Visualization orbit readout
Latitude
Unknown
Longitude
Unknown
Altitude
Unknown
Speed
Unknown
Apparent Right ascension
Unknown
Apparent Declination
Unknown
Sunlit
N/A
Visualization observer readout
Local Sidereal Time
02:00:07
Azimuth
Unknown
Elevation
Unknown
Doppler factor
Unknown
Orbital elements
Apogee altitude
867.801 km
Perigee altitude
657.379 km
Semi-major axis
7,140.727 km
Eccentricity
0.01473
Inclination
99.0095°
RAAN
40.8046°
Arg. of periapsis
341.6754°
True anomaly
140.06797°
Mean anomaly
138.975°
Eccentric anomaly
139.523°
Mean motion
3.59691 °/min
Orbital period
100.09 mins
BSTAR
0.0012692
Loading maneuver chart data...
Computing Atmospheric mass density...

Documentation

Showing up to 5 results
|